Location: Lourdes
(43.1000°N, 0.0500°W)
Time: 09:36:45
(UTC+00:00)

Cosmos 2366 rocket - Pass Details

Date: 30 November 2020
Orbit: 955 x 997 km, 82.9° (Epoch: 26 January)

Event Time Altitude Azimuth Distance (km) Brightness Sun altitude
Rises 17:49:49 0° 351° (N) 3,665 6.9 -14.8°
Reaches altitude 10° 17:52:20 10° 350° (N) 2,709 6.3 -15.3°
Maximum altitude 17:58:32 81° 265° (W) 974 4.1 -16.4°
Drops below altitude 10° 18:04:39 10° 178° (S) 2,676 6.4 -17.4°
Sets 18:07:07 0° 178° (S) 3,617 7.1 -17.9°
